Location: Unspecified
(0.0000°N, 1.0000°E)
Time: 14:19:13
(UTC+01:00)

Amateur Radio Satellites - All Passes

Search period start: 21 January 2017 13:49
Search period end: 22 January 2017 13:49
Location: Unspecified, 0.0000°N, 1.0000°E

Satellite Date Start Highest point End Downlink Frequencies (MHz)
Time Altitude Azimuth
TISAT 1 21 Jan 13:53:36 13:57:34 44° 102° (ESE) 14:01:35 437.305
AIST 1 21 Jan 14:05:10 14:09:30 59° 94° (E) 14:13:48
UKube-1 21 Jan 14:08:57 14:12:19 23° 282° (WNW) 14:15:42 .
SRMSAT 21 Jan 14:12:02 14:17:34 39° 340° (NNW) 14:23:07 437.500
DX 1 21 Jan 14:12:31 14:14:49 14° 282° (WNW) 14:17:07 434.975-435.025
AO-85 21 Jan 14:14:38 14:16:51 13° 291° (WNW) 14:19:00 145.980
YUBILEINY 21 Jan 14:16:51 14:25:22 55° 93° (E) 14:33:52 435.215
CUSAT 1 21 Jan 14:23:15 14:27:40 18° 80° (E) 14:31:34 437.405
ITUPSAT 1 21 Jan 14:24:42 14:27:16 14° 103° (ESE) 14:29:51 437.325
Oscar 19 21 Jan 14:34:33 14:39:22 39° 257° (WSW) 14:44:11 437.125/150
JUGNU 21 Jan 14:35:02 14:37:07 12° 351° (N) 14:39:13 437.505
Cosmos 2491 21 Jan 14:38:12 14:47:02 89° 89° (E) 14:55:54 435.465 / 435.565
Gurwin Techsat 1B 21 Jan 14:55:05 15:00:14 51° 257° (WSW) 15:05:22 435.225
BEESAT 3 21 Jan 14:56:48 15:00:11 30° 112° (ESE) 15:03:35 437.485
BEESAT 21 Jan 14:56:49 15:01:17 40° 102° (ESE) 15:05:47 436.000
SWISSCUBE 21 Jan 14:58:23 15:03:01 50° 102° (ESE) 15:07:39 437.505
Cosmos 2504 21 Jan 14:59:02 15:07:45 59° 93° (E) 15:16:13 435.465 / 435.565
ITAMSAT 1 21 Jan 15:19:23 15:24:10 38° 77° (ENE) 15:28:55 435.822/435.867
DANDE 21 Jan 15:19:26 15:25:35 23° 83° (E) 15:31:16 436.750
BEESAT 2 21 Jan 15:43:07 15:46:50 48° 112° (ESE) 15:50:36 435.950
AO-7 21 Jan 15:53:08 16:01:19 61° 74° (ENE) 16:09:29 29.400- 29.500
ITUPSAT 1 21 Jan 16:00:42 16:04:49 29° 282° (WNW) 16:08:59 437.325
CUSAT 1 21 Jan 16:02:59 16:09:35 41° 268° (W) 16:14:58 437.405
SRMSAT 21 Jan 16:03:22 16:07:11 17° 346° (NNW) 16:11:02 437.500
YUBILEINY 21 Jan 16:16:20 16:21:44 18° 273° (W) 16:27:12 435.215
MOZHAYETS 4 21 Jan 16:21:35 16:26:11 66° 282° (WNW) 16:30:47
AUBIESAT-1 21 Jan 16:22:35 16:25:26 26° 106° (ESE) 16:28:23 437.475
BRITE-PL 21 Jan 16:23:02 16:24:40 11° 77° (ENE) 16:26:19 437.365/2234.400
KKS-1 21 Jan 16:54:34 16:58:59 80° 103° (ESE) 17:03:26 437.445
Cosmos 2504 21 Jan 16:55:15 17:00:40 18° 272° (W) 17:06:04 435.465 / 435.565
DANDE 21 Jan 17:00:18 17:08:08 47° 267° (W) 17:15:10 436.750
ITAMSAT 1 21 Jan 17:01:12 17:03:20 13° 257° (WSW) 17:05:28 435.822/435.867
CUBESAT XI-V 21 Jan 17:09:59 17:14:25 47° 102° (ESE) 17:18:51 437.345
M-CUBED/EXP-1 PRIME 21 Jan 17:21:33 17:23:51 18° 285° (WNW) 17:26:11 437.505
STARS 21 Jan 17:45:11 17:49:26 54° 282° (WNW) 17:53:44 437.465
AO-7 21 Jan 17:48:45 17:53:39 17° 253° (WSW) 17:58:35 29.400- 29.500
AIST 2 21 Jan 17:50:38 17:53:08 16° 112° (ESE) 17:55:40 435.215
SRMSAT 21 Jan 17:56:28 17:57:21 10° 356° (N) 17:58:16 437.500
GOMX 1 21 Jan 17:56:29 18:01:52 55° 79° (ENE) 18:07:10 467.674
BRITE-PL 21 Jan 17:57:26 18:02:43 51° 259° (WSW) 18:08:12 437.365/2234.400
O/OREOS (USA 219) 21 Jan 18:08:56 18:13:26 65° 255° (WSW) 18:17:58 437.305
JUGNU 21 Jan 18:14:08 18:17:23 15° 12° (NNE) 18:20:39 437.505
CUTE-I 21 Jan 18:16:18 18:20:50 29° 77° (ENE) 18:25:20 437.470
HORYU 2 21 Jan 18:16:52 18:21:17 69° 259° (WSW) 18:25:39 437.375
DOVE 4 21 Jan 18:30:57 18:36:01 47° 79° (E) 18:40:52 437.250
LilacSat-2 21 Jan 18:31:10 18:34:48 47° 79° (E) 18:38:25 437.200
Cubesat XI-IV 21 Jan 18:58:58 19:04:19 87° 255° (WSW) 19:09:39 437.490
SO-50 21 Jan 19:01:39 19:06:05 82° 247° (WSW) 19:10:35 436.795
NOAA 15 21 Jan 19:04:15 19:09:30 70° 257° (WSW) 19:14:45 137.62
GONETS M04 21 Jan 19:06:40 19:12:41 21° 93° (E) 19:18:41
Cosmos 2499 21 Jan 19:10:12 19:17:50 33° 94° (E) 19:25:07 435.465 / 435.565
NOAA 18 21 Jan 19:11:37 19:17:06 61° 76° (ENE) 19:22:30 137.9125
STRAND 1 21 Jan 19:19:57 19:24:20 29° 103° (ESE) 19:28:44 437.568
CUTE 1.7 + AOD 2 21 Jan 19:20:37 19:22:17 12° 78° (ENE) 19:23:56 437.475
AIST 2 21 Jan 19:28:33 19:31:20 18° 292° (WNW) 19:34:09 435.215
SRMSAT 21 Jan 19:46:02 19:47:46 11° 7° (N) 19:49:30 437.500
CANX-2 21 Jan 19:47:45 19:51:42 39° 78° (ENE) 19:55:38 2200.000
CINEMA 3 21 Jan 19:52:25 19:57:12 87° 78° (ENE) 20:01:43 145.822/145.860
SEEDS 21 Jan 19:57:00 20:00:28 25° 78° (ENE) 20:03:54 437.485
CUTE-I 21 Jan 19:57:02 20:00:36 18° 257° (WSW) 20:04:09 437.470
COMPASS 1 21 Jan 20:01:06 20:03:45 16° 78° (ENE) 20:06:22 437.405
JUGNU 21 Jan 20:01:40 20:06:56 32° 19° (NNE) 20:12:15 437.505
HO-68 21 Jan 20:07:50 20:14:59 69° 76° (ENE) 20:22:07 435.675
AAUSAT CUBESAT 2 21 Jan 20:11:17 20:13:53 16° 79° (ENE) 20:16:29 437.432
DOVE 4 21 Jan 20:12:19 20:13:18 10° 257° (WSW) 20:14:15 437.250
ISS 21 Jan 20:30:18 20:33:10 28° 305° (NW) 20:36:01 145.825
CUBEBUG 2 21 Jan 20:40:08 20:44:25 60° 78° (ENE) 20:48:33 437.445
CUTE 1.7 + AOD 2 21 Jan 20:54:22 20:57:50 25° 259° (WSW) 21:01:19 437.475
RS-15 21 Jan 20:54:29 20:56:34 11° 113° (ESE) 20:58:41 29.354- 29.394
FUNcube-1 21 Jan 20:59:12 21:02:40 26° 79° (E) 21:06:06 145.935
STRAND 1 21 Jan 20:59:57 21:03:14 17° 283° (WNW) 21:06:32 437.568
GONETS M04 21 Jan 21:00:53 21:09:06 48° 273° (W) 21:17:21
Cosmos 2499 21 Jan 21:02:57 21:10:34 33° 272° (W) 21:17:55 435.465 / 435.565
UWE-3 21 Jan 21:06:07 21:10:23 79° 78° (ENE) 21:14:31 435.000/436.395/437.385
ZACube-1 21 Jan 21:22:17 21:26:27 67° 79° (E) 21:30:32 437.345
SRMSAT 21 Jan 21:33:27 21:37:49 21° 16° (NNE) 21:42:10 437.500
SEEDS 21 Jan 21:34:17 21:35:53 12° 258° (WSW) 21:37:27 437.485
PHONESAT 2.4 21 Jan 21:35:56 21:37:14 14° 138° (SE) 21:38:30 2401.200-2431.200
COMPASS 1 21 Jan 21:36:08 21:39:01 18° 258° (WSW) 21:41:54 437.405
AAUSAT CUBESAT 2 21 Jan 21:46:13 21:49:05 18° 259° (WSW) 21:51:58 437.432
JUGNU 21 Jan 21:50:04 21:56:05 86° 21° (NNE) 22:02:07 437.505
PRISM 21 Jan 21:53:31 21:57:33 76° 100° (E) 22:01:37 437.425
Oscar 11 21 Jan 21:56:19 22:00:26 46° 258° (WSW) 22:04:34 145.826/435.025
HO-68 21 Jan 22:00:10 22:02:18 11° 254° (WSW) 22:04:27 435.675
FUNcube-1 21 Jan 22:37:26 22:38:37 11° 258° (WSW) 22:39:49 145.935
UNISAT 6 21 Jan 22:38:34 22:43:07 72° 102° (ESE) 22:47:48 437.425
PCSat 21 Jan 22:43:48 22:45:06 11° 110° (ESE) 22:46:24 145.827
TIGRISAT 21 Jan 22:51:29 22:56:04 83° 281° (W) 23:00:45 435.000
DELFI C3 21 Jan 22:51:58 22:55:21 27° 259° (WSW) 22:58:43 145.870
RS-15 21 Jan 22:57:24 23:08:41 86° 111° (ESE) 23:20:36 29.354- 29.394
HUMSAT D 21 Jan 22:58:20 23:02:17 51° 258° (WSW) 23:06:14 437.325/437.525
ANTELSAT 21 Jan 23:07:14 23:11:37 46° 282° (WNW) 23:16:07 437.575/2403.000
PHONESAT 2.4 21 Jan 23:10:21 23:11:02 11° 318° (NW) 23:11:43 2401.200-2431.200
SRMSAT 21 Jan 23:21:32 23:27:19 49° 21° (NNE) 23:33:05 437.500
JAS-2 21 Jan 23:23:01 23:30:45 66° 103° (ESE) 23:38:26 435.910
CUBEBUG 1 21 Jan 23:26:09 23:27:44 12° 78° (ENE) 23:29:19 437.445
JUGNU 21 Jan 23:39:47 23:45:13 35° 199° (SSW) 23:50:40 437.505
AISAT 21 Jan 23:45:32 23:47:32 13° 78° (ENE) 23:49:31 437.250
QB50P1 21 Jan 23:51:22 23:55:13 34° 102° (ESE) 23:59:04 145.935-145.965
POLYITAN 1 21 Jan 23:55:47 23:59:47 40° 102° (ESE) 00:03:49 437.675
QB50P2 21 Jan 23:57:00 00:01:05 46° 102° (ESE) 00:05:11 145.880/145.840
ESTCUBE 1 22 Jan 00:10:37 00:15:07 75° 257° (WSW) 00:19:37 437.505/2401.250
VELOX 1 22 Jan 00:16:45 00:20:48 34° 78° (ENE) 00:24:49 145.980
POPSAT HIP 1 22 Jan 00:17:59 00:22:13 85° 99° (E) 00:26:30 437.405
PCSat 22 Jan 00:23:05 00:28:14 47° 289° (WNW) 00:33:24 145.827
DUCHIFAT 1 22 Jan 00:27:09 00:31:22 85° 282° (WNW) 00:35:37 145.980
50 SAT 22 Jan 00:28:59 00:32:10 32° 79° (ENE) 00:35:22 437.505
NANOSAT C BR1 22 Jan 00:33:28 00:37:37 60° 281° (W) 00:41:48 145.865
SPROUT 22 Jan 00:35:41 00:39:44 42° 79° (ENE) 00:43:45 437.525
UKube-1 22 Jan 00:41:58 00:45:01 19° 78° (ENE) 00:48:04 .
AO-85 22 Jan 00:44:32 00:48:28 62° 68° (ENE) 00:52:42 145.980
DX 1 22 Jan 00:44:38 00:48:32 32° 78° (ENE) 00:52:25 434.975-435.025
BUGSAT 1 22 Jan 00:56:24 01:00:28 66° 102° (ESE) 01:04:35 437.445
CUBEBUG 1 22 Jan 00:59:53 01:03:45 29° 258° (WSW) 01:07:35 437.445
SRMSAT 22 Jan 01:10:39 01:16:32 60° 201° (SSW) 01:22:25 437.500
JAS-2 22 Jan 01:11:09 01:15:19 15° 284° (WNW) 01:19:30 435.910
RS-15 22 Jan 01:16:03 01:21:10 14° 295° (WNW) 01:26:24 29.354- 29.394
Cosmos 2491 22 Jan 01:18:24 01:24:27 21° 93° (E) 01:30:27 435.465 / 435.565
AISAT 22 Jan 01:19:55 01:23:43 27° 258° (WSW) 01:27:30 437.250
Oscar 19 22 Jan 01:29:26 01:33:57 32° 103° (ESE) 01:38:28 437.125/150
JUGNU 22 Jan 01:31:11 01:34:45 16° 193° (SSW) 01:38:18 437.505
Gurwin Techsat 1B 22 Jan 01:54:26 01:58:58 29° 103° (ESE) 02:03:30 435.225
VELOX 1 22 Jan 01:56:29 01:56:57 10° 257° (WSW) 01:57:25 145.980
TISAT 1 22 Jan 01:58:43 02:02:50 53° 78° (ENE) 02:06:53 437.305
AIST 1 22 Jan 02:11:41 02:15:54 84° 83° (E) 02:20:11
UKube-1 22 Jan 02:17:53 02:20:47 18° 258° (WSW) 02:23:41 .
DX 1 22 Jan 02:23:37 02:24:26 10° 257° (WSW) 02:25:15 434.975-435.025
ITUPSAT 1 22 Jan 02:45:32 02:49:33 27° 78° (ENE) 02:53:33 437.325
BEESAT 3 22 Jan 02:48:36 02:52:09 32° 68° (ENE) 02:55:41 437.485
YUBILEINY 22 Jan 02:50:09 02:58:54 80° 267° (W) 03:07:37 435.215
CUSAT 1 22 Jan 02:58:42 03:01:53 28° 91° (E) 03:05:49 437.405
SRMSAT 22 Jan 03:01:15 03:05:57 24° 197° (SSW) 03:10:37 437.500
Oscar 19 22 Jan 03:10:08 03:12:59 15° 283° (WNW) 03:15:51 437.125/150
Cosmos 2504 22 Jan 03:11:29 03:18:35 72° 87° (E) 03:25:54 435.465 / 435.565
Cosmos 2491 22 Jan 03:12:38 03:20:53 48° 273° (W) 03:29:08 435.465 / 435.565
BEESAT 22 Jan 03:18:26 03:23:11 80° 77° (ENE) 03:27:55 436.000
SWISSCUBE 22 Jan 03:20:13 03:24:58 83° 258° (WSW) 03:29:42 437.505
Gurwin Techsat 1B 22 Jan 03:35:07 03:38:37 18° 283° (WNW) 03:42:09 435.225
BEESAT 2 22 Jan 03:36:10 03:40:04 52° 68° (ENE) 03:43:55 435.950
M-CUBED/EXP-1 PRIME 22 Jan 03:46:44 03:49:21 15° 75° (ENE) 03:51:55 437.505
ITAMSAT 1 22 Jan 03:53:50 03:59:02 79° 283° (WNW) 04:04:17 435.822/435.867
DANDE 22 Jan 04:04:41 04:07:07 27° 92° (E) 04:09:55 436.750
AO-7 22 Jan 04:19:22 04:27:41 86° 286° (WNW) 04:36:01 29.400- 29.500
AUBIESAT-1 22 Jan 04:20:40 04:24:46 33° 75° (ENE) 04:28:43 437.475
ITUPSAT 1 22 Jan 04:24:27 04:27:06 15° 257° (WSW) 04:29:46 437.325
MOZHAYETS 4 22 Jan 04:38:38 04:42:51 38° 258° (WSW) 04:47:04
BRITE-PL 22 Jan 04:48:47 04:51:31 17° 101° (E) 04:54:12 437.365/2234.400
SRMSAT 22 Jan 04:53:39 04:55:52 12° 189° (S) 04:58:04 437.500
KKS-1 22 Jan 05:07:03 05:11:30 68° 258° (WSW) 05:15:55 437.445
JUGNU 22 Jan 05:13:05 05:15:01 12° 172° (S) 05:16:58 437.505
M-CUBED/EXP-1 PRIME 22 Jan 05:19:33 05:23:32 28° 254° (WSW) 05:27:25 437.505
CUBESAT XI-V 22 Jan 05:27:57 05:32:38 85° 75° (ENE) 05:37:18 437.345
AIST 2 22 Jan 05:48:17 05:51:26 20° 68° (ENE) 05:54:34 435.215
STARS 22 Jan 05:56:16 06:00:20 37° 257° (WSW) 06:04:24 437.465
AUBIESAT-1 22 Jan 05:57:04 05:58:48 12° 253° (WSW) 06:00:32 437.475
Cubesat XI-IV 22 Jan 06:00:24 06:03:56 18° 103° (ESE) 06:07:29 437.490
NOAA 15 22 Jan 06:03:27 06:07:20 21° 103° (ESE) 06:11:12 137.62
NOAA 18 22 Jan 06:18:32 06:21:01 13° 104° (ESE) 06:23:29 137.9125
O/OREOS (USA 219) 22 Jan 06:20:25 06:24:34 36° 284° (WNW) 06:28:41 437.305
GOMX 1 22 Jan 06:21:05 06:25:12 75° 283° (WNW) 06:29:23 467.674
LilacSat-2 22 Jan 06:25:29 06:29:07 39° 101° (E) 06:32:45 437.200
BRITE-PL 22 Jan 06:26:55 06:29:47 17° 283° (WNW) 06:32:35 437.365/2234.400
HORYU 2 22 Jan 06:29:14 06:33:30 45° 282° (WNW) 06:37:49 437.375
DOVE 4 22 Jan 06:51:45 06:55:55 82° 101° (ESE) 07:00:16 437.250
CUTE-I 22 Jan 06:54:41 07:00:02 85° 102° (ESE) 07:05:26 437.470
JUGNU 22 Jan 07:00:21 07:04:50 22° 164° (SSE) 07:09:17 437.505
SO-50 22 Jan 07:14:19 07:18:52 44° 292° (WNW) 07:23:23 436.795
Cosmos 2499 22 Jan 07:20:17 07:26:37 35° 87° (E) 07:33:14 435.465 / 435.565
CUTE 1.7 + AOD 2 22 Jan 07:26:04 07:28:33 15° 102° (ESE) 07:31:02 437.475
AIST 2 22 Jan 07:27:08 07:29:39 15° 248° (WSW) 07:32:08 435.215
GONETS M04 22 Jan 07:38:04 07:46:17 43° 87° (E) 07:54:28
Cubesat XI-IV 22 Jan 07:39:07 07:43:43 30° 283° (WNW) 07:48:21 437.490
NOAA 15 22 Jan 07:42:35 07:46:49 25° 283° (WNW) 07:51:03 137.62
STRAND 1 22 Jan 07:51:55 07:57:00 73° 78° (ENE) 08:02:03 437.568
CANX-2 22 Jan 07:53:58 07:58:06 49° 101° (ESE) 08:02:14 2200.000
NOAA 18 22 Jan 07:56:16 08:01:21 41° 283° (WNW) 08:06:29 137.9125
HO-68 22 Jan 07:59:32 08:06:31 58° 104° (ESE) 08:13:30 435.675
SEEDS 22 Jan 08:01:57 08:05:39 30° 102° (ESE) 08:09:20 437.485
ISS 22 Jan 08:03:51 08:06:59 47° 234° (SW) 08:10:09 145.825
COMPASS 1 22 Jan 08:04:52 08:07:49 19° 102° (ESE) 08:10:44 437.405
CINEMA 3 22 Jan 08:08:21 08:12:40 56° 281° (W) 08:17:13 145.822/145.860
AAUSAT CUBESAT 2 22 Jan 08:14:30 08:17:21 18° 102° (ESE) 08:20:11 437.432
SRMSAT 22 Jan 08:33:11 08:36:28 15° 168° (SSE) 08:39:43 437.500
JUGNU 22 Jan 08:48:22 08:54:06 55° 159° (SSE) 08:59:49 437.505
CUBEBUG 2 22 Jan 08:51:42 08:56:15 89° 281° (W) 09:00:58 437.445
CUTE 1.7 + AOD 2 22 Jan 09:00:55 09:04:06 21° 282° (WNW) 09:07:19 437.475
FUNcube-1 22 Jan 09:07:41 09:11:53 38° 102° (ESE) 09:16:07 145.935
Cosmos 2499 22 Jan 09:14:18 09:19:25 21° 266° (W) 09:24:46 435.465 / 435.565
UWE-3 22 Jan 09:16:34 09:21:06 73° 281° (W) 09:25:45 435.000/436.395/437.385
ZACube-1 22 Jan 09:31:26 09:35:58 86° 280° (W) 09:40:34 437.345
GONETS M04 22 Jan 09:36:03 09:42:41 24° 267° (W) 09:49:23
COMPASS 1 22 Jan 09:40:32 09:43:04 16° 282° (WNW) 09:45:38 437.405
ANTELSAT 22 Jan 09:47:22 09:48:38 11° 78° (ENE) 09:49:53 437.575/2403.000
AAUSAT CUBESAT 2 22 Jan 09:49:58 09:52:33 16° 282° (WNW) 09:55:08 437.432
HO-68 22 Jan 09:50:21 09:53:52 14° 285° (WNW) 09:57:25 435.675
PRISM 22 Jan 09:56:02 10:00:12 84° 80° (E) 10:04:22 437.425
Oscar 11 22 Jan 10:05:07 10:09:04 35° 282° (WNW) 10:13:02 145.826/435.025
PHONESAT 2.4 22 Jan 10:17:45 10:19:54 43° 223° (SW) 10:22:05 2401.200-2431.200
SRMSAT 22 Jan 10:20:53 10:26:10 32° 161° (SSE) 10:31:26 437.500
JUGNU 22 Jan 10:37:26 10:43:08 53° 339° (NNW) 10:48:49 437.505
RS-15 22 Jan 10:40:10 10:52:04 75° 70° (ENE) 11:03:18 29.354- 29.394
DELFI C3 22 Jan 10:50:22 10:53:45 28° 281° (WNW) 10:57:08 145.870
UNISAT 6 22 Jan 10:52:18 10:56:38 73° 257° (WSW) 11:00:54 437.425
JAS-2 22 Jan 10:58:54 11:03:09 26° 77° (ENE) 11:07:27 435.910
HUMSAT D 22 Jan 11:02:48 11:06:54 45° 281° (WNW) 11:11:00 437.325/437.525
TIGRISAT 22 Jan 11:05:11 11:09:25 51° 258° (WSW) 11:13:33 435.000
PCSat 22 Jan 11:16:23 11:21:16 35° 71° (ENE) 11:26:09 145.827
ANTELSAT 22 Jan 11:21:22 11:25:05 28° 258° (WSW) 11:28:45 437.575/2403.000
CUBEBUG 1 22 Jan 11:35:04 11:37:38 16° 102° (ESE) 11:40:13 437.445
BY70-1 22 Jan 11:44:35 11:47:16 47° 282° (WNW) 11:49:43 436.1900
AISAT 22 Jan 11:56:00 11:58:58 18° 102° (ESE) 12:01:57 437.250
QB50P1 22 Jan 11:57:23 12:01:22 41° 78° (ENE) 12:05:19 145.935-145.965
POLYITAN 1 22 Jan 12:02:03 12:06:09 49° 78° (ENE) 12:10:11 437.675
QB50P2 22 Jan 12:03:18 12:07:27 57° 79° (ENE) 12:11:33 145.880/145.840
SRMSAT 22 Jan 12:09:28 12:15:27 88° 156° (SSE) 12:21:26 437.500
50 SAT 22 Jan 12:16:00 12:18:31 19° 102° (ESE) 12:21:01 437.505
POPSAT HIP 1 22 Jan 12:24:14 12:28:28 77° 259° (W) 12:32:38 437.405
ESTCUBE 1 22 Jan 12:24:50 12:29:08 46° 282° (WNW) 12:33:27 437.505/2401.250
VELOX 1 22 Jan 12:28:00 12:32:12 48° 102° (ESE) 12:36:26 145.980
JUGNU 22 Jan 12:28:02 12:32:23 21° 344° (NNW) 12:36:45 437.505
DUCHIFAT 1 22 Jan 12:32:41 12:36:52 70° 258° (WSW) 12:41:00 145.980
NANOSAT C BR1 22 Jan 12:39:21 12:43:25 48° 258° (WSW) 12:47:26 145.865
SPROUT 22 Jan 12:42:37 12:46:47 54° 102° (ESE) 12:50:58 437.525
JAS-2 22 Jan 12:44:46 12:48:02 17° 257° (WSW) 12:51:19 435.910
UKube-1 22 Jan 12:49:52 12:53:21 24° 102° (ESE) 12:56:50 .
DX 1 22 Jan 12:53:56 12:58:01 43° 102° (ESE) 13:02:08 434.975-435.025
AO-85 22 Jan 12:56:49 13:02:00 67° 291° (WNW) 13:06:52 145.980
RS-15 22 Jan 12:57:25 13:04:01 17° 248° (WSW) 13:10:31 29.354- 29.394
BUGSAT 1 22 Jan 12:59:35 13:03:44 74° 77° (ENE) 13:07:48 437.445
PCSat 22 Jan 13:01:21 13:04:24 15° 250° (WSW) 13:07:26 145.827
CUBEBUG 1 22 Jan 13:10:25 13:13:39 21° 282° (WNW) 13:16:53 437.445
YUBILEINY 22 Jan 13:29:16 13:35:58 24° 93° (E) 13:42:38 435.215
AISAT 22 Jan 13:32:05 13:35:10 19° 282° (WNW) 13:38:15 437.250
